RAVAN

Last updated on Wed Oct 29 2025 00:03:53 GMT+0000 (Coordinated Universal Time)

1 41849U 16067B 25301.55439657 .00031245 00000+0 89371-3 0 9996 2 41849 98.0229 162.5615 0009468 98.0133 262.2184 15.35872221491932
UTC large
Height (km)
Speed (km/s)
/
Latitude / Longitude
Inclination (degrees)
Orbital Period (minutes)
Azimuth
Elevation
Range (km)
Doppler Factor

Next 0 passes for location: London (51.5072 / 0.1276)

Sorry there are no passes over London.